Orbital Elements at Epoch 2459000.5 (2020-May-31.0) TDB
Reference: JPL 13 (heliocentric ecliptic J2000)
Element | Value | Uncertainty (1-sigma) | Units |
e | .2261818706409529 | 4.6253e-08 | |
a | 2.321456443618386 | 3.4142e-08 | au |
q | 1.796385082589285 | 1.2566e-07 | au |
i | 3.190051261990852 | 4.4395e-06 | deg |
node | 137.730359307333 | 0.00014168 | deg |
peri | 173.2510555225793 | 0.00014284 | deg |
M | 161.2993190551416 | 1.9679e-05 | deg |
tp | 2458421.645692384092 (2018-Oct-30.14569238) | 7.1311e-05 | TDB |
period | 1291.930753101864 3.54 | 2.8501e-05 7.803e-08 | d yr |
n | .2786527057550549 | 6.1473e-09 | deg/d |
Q | 2.846527804647486 | 4.1865e-08 | au |
|
| | Orbit Determination Parameters
Additional Information
|